User: anonymous   Login
Location: Unspecified
(0.0000°N, 0.0000°E)
Time: 19:57:59
(UTC+01:00)
Language:

YAOGAN 3 - Orbit

View from above orbital plane
View from above orbital plane
View from above satellite
View from above satellite

Ground track
Ground track

The orbit data is extracted from the following two-line orbital elements,

1 32289U 07055A   16045.40622487  .00000167  00000-0  28645-4 0  9993
2 32289  97.9805  43.1473 0001843  84.9959 275.1471 14.80665718446407
Epoch (UTC): 14 February 2016 09:44:57
Eccentricity: 0.0001843
inclination: 97.9805°
perigee height: 626 km
apogee height: 628 km
right ascension of ascending node: 43.1473°
argument of perigee: 84.9959°
revolutions per day: 14.80665718
mean anomaly at epoch: 275.1471°
orbit number at epoch: 44640

The dashed part of the orbit path shows where the satellite is in the earth's shadow,  

DLR